ROMMA est une association bénévole à but non lucratif. Votre soutien est indispensable : ADHERER à ROMMA ou FAIRE un DON

Taninges - (74, Haute-Savoie)

Vallée du Giffre (635 m)   Longitude: 06° 35' 38" E   Latitude: 46° 06' 21" N Station romma n°98
 

Détail journalier du     <<     >>

Température Precipitation Humidité Pression Vent Dir Rafale Dir. rafale Ensol.
Heure (°C) (mm) (%) (hPa) (km/h) (km/h) (min)
01:00 5.909610161S5S0
02:00 6.209610161O5O0
03:00 6.209610161O5ONO0
04:00 6.609610171ONO6SO0
05:00 7.009610162E8E0
06:00 6.109610161ONO5ESE0
07:00 4.909610171O6OSO0
08:00 4.309610171E5E0
09:00 6.009710172NO8SSO35
10:00 8.70.29610171SSO5SSO50
11:00 11.908210162SSE6S60
12:00 14.507610152SE6SE60
13:00 16.106610142SSO8SO30
14:00 16.106610142SE10OSO0
15:00 16.106710145OSO15SO0
16:00 15.406910145OSO13SO0
17:00 14.907410152OSO11SSO0
18:00 13.808310161N6ONO0
19:00 12.90.48710163E10E0
20:00 11.909210171SO6ENE0
21:00 11.60.494101605ENE0
22:00 11.309510161OSO5OSO0
23:00 11.309510162SE6SE0
minuit 11.10.49510161O6SO0

Graphique du 17-10-2019

 

Serveur OMMA